Location: Clanezzo
(45.7500°N, 9.6000°E)
Time: 01:07:05
(UTC+00:00)

Meteor 2-17 Rocket - Pass Details

Date: 12 May 2021
Orbit: 935 x 956 km, 82.5° (Epoch: 23 June)

Event Time Altitude Azimuth Distance (km) Brightness Sun altitude
Rises 19:32:41 0° 352° (N) 3,648 8.2 -8.2°
Reaches altitude 10° 19:35:13 10° 355° (N) 2,697 7.5 -8.5°
Maximum altitude 19:41:23 70° 79° (E) 1,014 4.5 -9.3°
Drops below altitude 10° 19:47:29 10° 163° (SSE) 2,671 6.3 -10.2°
Enters shadow 19:48:17 - 164° (SSE) 2,970 6.5 -10.3°
